Weather History for Gillette, WY

Change the Weather History Date:

Sunday, January 13, 2013

  Actual Average Record
Temperature  
Mean Temperature 6 °F 26 °F  
Max Temperature 12 °F 38 °F - ()
Min Temperature -1 °F 15 °F - ()
Degree Days  
Heating Degree Days 59 39  
Month to date heating degree days 557 512  
Since 1 July heating degree days 3397 3653  
Cooling Degree Days 0 0  
Month to date cooling degree days 0 0  
Year to date cooling degree days 0 0  
Moisture  
Dew Point 1 °F    
Average Humidity 79    
Maximum Humidity 91    
Minimum Humidity 67    
Precipitation  
Precipitation T in 0.01 in - ()
Month to date precipitation 0.12 0.13  
Year to date precipitation 0.12 0.13  
Sea Level Pressure  
Sea Level Pressure 30.25 in    
Wind  
Wind Speed 12 mph (West)    
Max Wind Speed 18 mph    
Max Gust Speed 21 mph    
Visibility 10 miles    
Events Snow    
T = Trace of Precipitation, MM = Missing Value Source: NWS Daily Summary

Daily Weather History Graph

Daily Weather History Graph

Search for Another Location

Airport:

Trip Planner

Search our weather history database for the weather conditions in past years. The results will help you decide how hot, cold, wet, or windy it might be!

Date:

Astronomy

Jan. 13, 2013 Rise Set
Actual Time 7:35 AM MST 4:46 PM MST
Civil Twilight 7:03 AM MST 5:19 PM MST
Nautical Twilight 6:27 AM MST 5:55 PM MST
Astronomical Twilight 5:52 AM MST 6:30 PM MST
Moon 8:29 AM MST (1/13) 7:36 PM MST (1/13)
Length of Visible Light 10h 16m
Length of Day
9h 11m
Waxing Crescent, 5% of the Moon is Illuminated
Jan 13
Waxing Crescent
Jan 18
First Quarter
Jan 26
Full
Feb 3
Last Quarter
Feb 10
New

Hourly Weather History & Observations

Time (MST) Temp. Windchill Dew Point Humidity Pressure Visibility Wind Dir Wind Speed Gust Speed Precip Events Conditions
12:53 AM 6.1 °F -7.8 °F 3.0 °F 87% 30.25 in 5.0 mi West 9.2 mph - N/A   Overcast
1:53 AM 5.0 °F -8.1 °F 1.9 °F 87% 30.27 in 10.0 mi West 8.1 mph - N/A   Overcast
2:53 AM 3.9 °F -9.4 °F 1.0 °F 88% 30.27 in 10.0 mi WNW 8.1 mph - N/A   Overcast
3:53 AM -0.0 °F -13.0 °F -2.0 °F 91% 30.27 in 10.0 mi West 6.9 mph - N/A   Overcast
4:53 AM 3.2 °F -10.3 °F -0.4 °F 85% 30.01 in 9.0 mi West 8.1 mph - N/A   Overcast
5:24 AM 1.4 °F -12.5 °F -0.4 °F 92% 30.01 in 10.0 mi West 8.1 mph - N/A   Mostly Cloudy
5:41 AM -0.4 °F -16.7 °F -2.2 °F 92% 30.02 in 10.0 mi West 10.4 mph - N/A   Partly Cloudy
5:53 AM -0.0 °F -16.3 °F -2.0 °F 91% 30.30 in 8.0 mi West 10.4 mph - 0.00 in Snow Light Snow
6:53 AM 3.0 °F -13.3 °F -0.0 °F 87% 30.29 in 8.0 mi West 11.5 mph - 0.00 in   Overcast
7:53 AM -0.0 °F -14.2 °F -2.0 °F 91% 30.32 in 10.0 mi West 8.1 mph - N/A   Mostly Cloudy
8:53 AM 6.1 °F -9.5 °F 3.0 °F 87% 30.31 in 10.0 mi West 11.5 mph - N/A   Overcast
9:53 AM 7.0 °F -7.5 °F 3.0 °F 84% 30.30 in 10.0 mi West 10.4 mph - N/A   Mostly Cloudy
10:53 AM 9.0 °F -7.3 °F 3.0 °F 77% 30.29 in 10.0 mi West 13.8 mph - N/A   Mostly Cloudy
11:53 AM 10.0 °F -7.1 °F 3.9 °F 76% 30.26 in 10.0 mi WNW 16.1 mph - N/A   Overcast
12:53 PM 10.9 °F -2.6 °F 3.9 °F 73% 30.25 in 10.0 mi WNW 10.4 mph - N/A   Overcast
1:53 PM 12.0 °F -3.4 °F 3.9 °F 70% 30.25 in 10.0 mi NW 13.8 mph - N/A   Scattered Clouds
2:53 PM 12.0 °F -0.4 °F 3.9 °F 70% 30.27 in 10.0 mi WNW 9.2 mph - N/A   Overcast
3:53 PM 10.9 °F 0.2 °F 3.0 °F 70% 30.29 in 10.0 mi West 6.9 mph - N/A   Mostly Cloudy
4:53 PM 5.0 °F -9.1 °F -0.0 °F 80% 30.30 in 10.0 mi West 9.2 mph - N/A   Overcast
5:53 PM 6.1 °F -11.6 °F 1.0 °F 80% 30.31 in 10.0 mi WSW 15.0 mph - N/A   Clear
6:53 PM 5.0 °F -13.6 °F -0.0 °F 80% 30.30 in 10.0 mi WSW 16.1 mph - N/A   Partly Cloudy
7:53 PM 3.9 °F -15.6 °F -2.0 °F 76% 30.31 in 10.0 mi WSW 17.3 mph - N/A   Clear
8:53 PM 3.0 °F -15.5 °F -2.0 °F 80% 30.30 in 10.0 mi WSW 15.0 mph - N/A   Clear
9:53 PM 3.0 °F -15.5 °F -2.9 °F 76% 30.30 in 10.0 mi WSW 15.0 mph - N/A   Clear
10:53 PM 5.0 °F -14.2 °F -2.0 °F 73% 30.28 in 10.0 mi WSW 17.3 mph - N/A   Overcast
11:53 PM 5.0 °F -14.2 °F -2.0 °F 73% 30.28 in 10.0 mi WSW 17.3 mph - N/A   Overcast